Location: Newark
(34.3481°N, 134.0494°E)
Time: 20:21:21
(UTC+00:00)

ISS - Visible Passes

Search period start: 06 December 2019 00:00
Search period end: 16 December 2019 00:00
Orbit: 411 x 421 km, 51.6° (Epoch: 07 December)

Date Brightness Start Highest point End Pass type
(mag) Time Alt. Az. Time Alt. Az. Time Alt. Az.
07 Dec -1.4 08:58:33 10° N 08:59:26 12° NNE 08:59:26 12° NNE visible
08 Dec -1.5 09:45:20 10° NW 09:46:21 18° NNW 09:46:21 18° NNW visible
09 Dec -2.6 08:57:08 10° NNW 09:00:00 25° NE 09:00:33 24° NE visible
10 Dec -3.0 09:45:01 10° WNW 09:48:03 51° WSW 09:48:03 51° WSW visible
11 Dec -3.9 08:56:27 10° NW 08:59:48 77° NE 09:03:05 10° SE visible
12 Dec -0.7 09:45:39 10° W 09:47:43 15° SW 09:49:47 10° SSW visible
13 Dec -1.6 08:56:24 10° WNW 08:59:20 29° SW 09:02:17 10° SSE visible
